Moses Lake, WA

3:06 AM PDT on May 26, 2017 (GMT -0700)
Grant County International

Weather History for KMWH - October, 2013

Change the Weather History Date:

Thursday, October 17, 2013

  Actual Average Record
Temperature  
Mean Temperature 51 °F 49 °F  
Max Temperature 68 °F 62 °F 75 °F (2003)
Min Temperature 33 °F 35 °F 20 °F (1984)
Degree Days  
Heating Degree Days 14 16  
Month to date heating degree days 255 218  
Since 1 July heating degree days 357 368  
Cooling Degree Days 0 0  
Month to date cooling degree days 0 0  
Year to date cooling degree days 948 614  
Moisture  
Dew Point 31 °F    
Average Humidity 54    
Maximum Humidity 82    
Minimum Humidity 26    
Precipitation  
Precipitation T in 0.02 in 0.66 in (2004)
Month to date precipitation 0.01 0.31  
Year to date precipitation 5.25 6.13  
Sea Level Pressure  
Sea Level Pressure 30.29 in    
Wind  
Wind Speed 4 mph (NNE)    
Max Wind Speed 14 mph    
Max Gust Speed 20 mph    
Visibility 10 miles    
Events Snow    
T = Trace of Precipitation, MM = Missing Value Source: NWS Daily Summary

Daily Weather History Graph

Daily Weather History Graph

Search for Another Location

Airport or City:

Trip Planner

Search our weather history database for the weather conditions in past years. The results will help you decide how hot, cold, wet, or windy it might be!

Date:

Astronomy

Oct. 17, 2013 Rise Set
Actual Time 7:18 AM PDT 6:05 PM PDT
Civil Twilight 6:47 AM PDT 6:36 PM PDT
Nautical Twilight 6:12 AM PDT 7:11 PM PDT
Astronomical Twilight 5:37 AM PDT 7:47 PM PDT
Moon 5:24 PM PDT (10/17) 5:52 AM PDT (10/17)
Length of Visible Light 11h 48m
Length of Day
10h 46m
Waxing Gibbous, 98% of the Moon is Illuminated
Oct 17
Waxing Gibbous
Oct 18
Full
Oct 26
Last Quarter
Nov 3
New
Nov 9
First Quarter

Hourly Weather History & Observations

Time (PDT) Temp. Windchill Dew Point Humidity Pressure Visibility Wind Dir Wind Speed Gust Speed Precip Events Conditions
12:52 AM 46.9 °F - 32.0 °F 56% 30.20 in 10.0 mi NNE 9.2 mph - N/A   Overcast
1:52 AM 42.1 °F 37.7 °F 30.9 °F 65% 30.20 in 10.0 mi NNE 6.9 mph - N/A   Partly Cloudy
2:52 AM 41.0 °F - 30.9 °F 67% 30.21 in 10.0 mi Calm Calm - N/A   Clear
3:52 AM 39.9 °F - 30.0 °F 68% 30.21 in 10.0 mi Calm Calm - N/A   Partly Cloudy
4:52 AM 37.0 °F 34.5 °F 28.9 °F 73% 30.23 in 10.0 mi North 3.5 mph - N/A   Clear
5:52 AM 36.0 °F - 30.0 °F 79% 30.24 in 10.0 mi Calm Calm - N/A   Clear
6:52 AM 36.0 °F - 30.0 °F 79% 30.40 in 10.0 mi Calm Calm - N/A   Clear
7:52 AM 35.1 °F - 28.9 °F 78% 30.41 in 10.0 mi Calm Calm - N/A   Clear
8:52 AM 42.1 °F - 30.9 °F 65% 30.43 in 10.0 mi Calm Calm - N/A   Clear
9:52 AM 48.9 °F - 34.0 °F 56% 30.28 in 10.0 mi Calm Calm - N/A   Clear
10:52 AM 54.0 °F - 35.1 °F 49% 30.29 in 10.0 mi Variable 3.5 mph - N/A   Clear
11:52 AM 62.1 °F - 35.1 °F 37% 30.28 in 10.0 mi NW 4.6 mph - N/A   Clear
12:52 PM 66.0 °F - 32.0 °F 28% 30.26 in 10.0 mi NNE 12.7 mph - N/A   Clear
1:52 PM 66.0 °F - 30.9 °F 27% 30.25 in 10.0 mi North 10.4 mph 16.1 mph N/A   Clear
2:52 PM 66.9 °F - 30.9 °F 26% 30.23 in 10.0 mi NNW 6.9 mph - N/A   Clear
3:52 PM 66.9 °F - 30.9 °F 26% 30.24 in 10.0 mi NNE 10.4 mph 16.1 mph N/A   Clear
4:52 PM 66.0 °F - 30.0 °F 26% 30.23 in 10.0 mi NNE 5.8 mph - N/A   Clear
5:52 PM 61.0 °F - 30.0 °F 31% 30.24 in 10.0 mi NE 4.6 mph - N/A   Clear
6:52 PM 55.9 °F - 30.0 °F 37% 30.40 in 10.0 mi East 3.5 mph - N/A   Clear
7:52 PM 51.1 °F - 32.0 °F 48% 30.26 in 10.0 mi SSE 4.6 mph - N/A   Clear
8:52 PM 50.0 °F - 30.9 °F 48% 30.41 in 10.0 mi ESE 3.5 mph - N/A   Clear
9:52 PM 42.1 °F 37.1 °F 28.9 °F 60% 30.43 in 10.0 mi North 8.1 mph - N/A   Clear
10:52 PM 39.0 °F 35.7 °F 28.0 °F 65% 30.43 in 10.0 mi NNE 4.6 mph - N/A   Clear
11:52 PM 37.9 °F 33.5 °F 28.9 °F 70% 30.28 in 10.0 mi NNE 5.8 mph - 0.00 in Snow Light Snow